Weather History for Nashville, TN

Change the Weather History Date:

Monday, December 19, 2011

  Actual Average Record
Temperature  
Mean Temperature 46 °F 40 °F  
Max Temperature 57 °F 48 °F 73 °F (1889)
Min Temperature 35 °F 31 °F 1 °F (1884)
Degree Days  
Heating Degree Days 19    
Month to date heating degree days 412  
Since 1 July heating degree days 1038  
Cooling Degree Days 0    
Month to date cooling degree days 0  
Year to date cooling degree days 1919  
Moisture  
Dew Point 30 °F    
Average Humidity 59    
Maximum Humidity 82    
Minimum Humidity 35    
Precipitation  
Precipitation 0.00 in 0.12 in 2.14 in (1903)
Month to date precipitation 2.23 2.80  
Year to date precipitation 50.12 45.81  
Snow  
Snow 0.00 in 0.00 in 1.20 in (1929)
Month to date snowfall T 0.2  
Since 1 July snowfall T 0.2  
Snow Depth 0.00 in    
Sea Level Pressure  
Sea Level Pressure 30.20 in    
Wind  
Wind Speed 5 mph (South)    
Max Wind Speed 14 mph    
Max Gust Speed 18 mph    
Visibility 10 miles    
Events      
T = Trace of Precipitation, MM = Missing Value Source: NWS Daily Summary

Daily Weather History Graph

Daily Weather History Graph

Search for Another Location

Airport:

Trip Planner

Search our weather history database for the weather conditions in past years. The results will help you decide how hot, cold, wet, or windy it might be!

Date:

Astronomy

Dec. 19, 2011 Rise Set
Actual Time 6:52 AM CST 4:34 PM CST
Civil Twilight 6:23 AM CST 5:03 PM CST
Nautical Twilight 5:51 AM CST 5:35 PM CST
Astronomical Twilight 5:20 AM CST 6:07 PM CST
Moon 1:09 AM CST (12/19) 12:27 PM CST (12/19)
Length of Visible Light 10h 39m
Length of Day
9h 42m
Waning Crescent, 31% of the Moon is Illuminated
Dec 19
Waning Crescent
Dec 24
New
Jan 1
First Quarter
Jan 9
Full
Jan 16
Last Quarter

Hourly Weather History & Observations

Time (CST) Temp. Windchill Dew Point Humidity Pressure Visibility Wind Dir Wind Speed Gust Speed Precip Events Conditions
12:53 AM 37.0 °F 33.3 °F 30.0 °F 76% 30.24 in 10.0 mi SSE 4.6 mph - N/A   Mostly Cloudy
1:53 AM 37.9 °F 34.4 °F 30.0 °F 73% 30.24 in 10.0 mi SE 4.6 mph - N/A   Mostly Cloudy
2:53 AM 35.1 °F 30.1 °F 28.9 °F 78% 30.23 in 10.0 mi SSE 5.8 mph - N/A   Overcast
3:53 AM 37.9 °F - 28.9 °F 70% 30.22 in 10.0 mi Calm Calm - N/A   Mostly Cloudy
4:53 AM 36.0 °F 33.3 °F 28.9 °F 76% 30.21 in 10.0 mi South 3.5 mph - N/A   Mostly Cloudy
5:53 AM 36.0 °F 33.3 °F 30.0 °F 79% 30.23 in 10.0 mi SSE 3.5 mph - N/A   Scattered Clouds
6:53 AM 37.9 °F 35.5 °F 28.9 °F 70% 30.24 in 10.0 mi South 3.5 mph - N/A   Mostly Cloudy
7:53 AM 39.9 °F - 30.9 °F 70% 30.26 in 10.0 mi Calm Calm - N/A   Mostly Cloudy
8:53 AM 45.0 °F 41.8 °F 32.0 °F 60% 30.26 in 10.0 mi South 5.8 mph - N/A   Mostly Cloudy
9:53 AM 51.1 °F - 30.0 °F 44% 30.27 in 10.0 mi SW 8.1 mph - N/A   Mostly Cloudy
10:53 AM 52.0 °F - 30.0 °F 43% 30.24 in 10.0 mi South 13.8 mph - N/A   Mostly Cloudy
11:53 AM 53.1 °F - 28.9 °F 40% 30.20 in 10.0 mi SSW 8.1 mph - N/A   Mostly Cloudy
12:53 PM 53.6 °F - 30.2 °F 41% 30.17 in 10.0 mi South 12.7 mph - N/A   Mostly Cloudy
1:53 PM 55.9 °F - 28.9 °F 36% 30.15 in 10.0 mi South 6.9 mph - N/A   Overcast
2:53 PM 55.9 °F - 30.9 °F 39% 30.14 in 10.0 mi South 3.5 mph - N/A   Overcast
3:53 PM 55.9 °F - 28.9 °F 36% 30.14 in 10.0 mi SSW 3.5 mph - N/A   Overcast
4:53 PM 52.0 °F - 30.0 °F 43% 30.15 in 10.0 mi South 3.5 mph - N/A   Overcast
5:53 PM 51.1 °F - 30.0 °F 44% 30.16 in 10.0 mi Calm Calm - N/A   Mostly Cloudy
6:53 PM 48.9 °F - 32.0 °F 52% 30.17 in 10.0 mi South 4.6 mph - N/A   Mostly Cloudy
7:53 PM 46.9 °F - 30.9 °F 54% 30.16 in 10.0 mi SSE 6.9 mph - N/A   Mostly Cloudy
8:53 PM 48.0 °F - 33.1 °F 56% 30.15 in 10.0 mi SSE 9.2 mph - N/A   Mostly Cloudy
9:53 PM 46.0 °F - 32.0 °F 58% 30.16 in 10.0 mi Calm Calm - N/A   Scattered Clouds
10:53 PM 46.9 °F - 32.0 °F 56% 30.16 in 10.0 mi Calm Calm - N/A   Mostly Cloudy
11:53 PM 39.0 °F 35.7 °F 33.1 °F 79% 30.14 in 10.0 mi SSE 4.6 mph - N/A   Mostly Cloudy